Regional Weather Roundup
Issued by NWS

Home | Current Version | Previous Version | Text Only | Print | Product List | Glossary Off
Versions: 1 2 3 4 5 6 7 8 9 10 11 12 13 14 15 16 17 18 19 20 21 22 23 24 25 26 27

000
ASUS45 KBOI 190410
RWRID
WEATHER ROUNDUP FOR IDAHO
NATIONAL WEATHER SERVICE BOISE ID
1000 PM MDT FRI APR 18 2014

NOTE: "FAIR" INDICATES FEW OR NO CLOUDS BELOW 12000 FEET
WITH NO SIGNIFICANT WEATHER AND/OR OBSTRUCTIONS TO VISIBILITY

IDZ012-014-190500-
SOUTHWEST IDAHO


CITY           SKY/WX    TMP DP  RH WIND       PRES   REMARKS
BOISE          PTCLDY    51  25  36 S5        29.97R
CALDWELL       PTCLDY    54  25  32 CALM      29.99S
MOUNTAIN HOME  MOCLDY    51  22  32 NW6       29.98R
$$

IDZ016-017-190500-
SOUTHCENTRAL IDAHO


CITY           SKY/WX    TMP DP  RH WIND       PRES   REMARKS
BURLEY         MOCLDY    46  29  51 S9        29.99R
JEROME         MOCLDY    46  26  45 SE7       30.00R
TWIN FALLS     MOCLDY    48  26  42 SW8       30.00R
$$

IDZ019>023-190500-
SOUTHEAST IDAHO


CITY           SKY/WX    TMP DP  RH WIND       PRES   REMARKS
IDAHO FALLS    PTCLDY    48  21  34 S14       29.97R
POCATELLO      CLEAR     49  19  30 SW15      29.99R
REXBURG        PTCLDY    48  18  30 S14G23    29.94R
$$

IDZ006-010-011-018-031-032-190500-
CENTRAL IDAHO MOUNTAINS


CITY           SKY/WX    TMP DP  RH WIND       PRES   REMARKS
MCCALL         CLEAR     37  17  44 CALM      29.99R
HAILEY         PTCLDY    46  14  27 N5        30.00R
STANLEY          N/A     27  17  66 S3        30.03R
SALMON         PTCLDY    39  14  35 E5        30.00R
CHALLIS        CLEAR     41   6  23 W10       29.99R
$$

IDZ002-004-006-007-026-190500-
NORTHERN IDAHO


CITY           SKY/WX    TMP DP  RH WIND       PRES   REMARKS
LEWISTON       PTCLDY    46  27  47 E7        30.00S
LOWELL           N/A     43  36  76 CALM      30.05R
COEUR D`ALENE  CLEAR     45  25  45 S9        29.99R
MULLAN PASS    PTCLDY    27  21  78 NW5       29.96R WCI  22
$$



USA.gov is the U.S. government's official web portal to all federal, state and local government web resources and services.